{"data":{"norad_id":47733,"intl_designator":"2021-017M","name":"STARLINK-2143","alt_names":[],"object_type":"PAYLOAD","status":"ACTIVE","operator":null,"country":"US","launch_date":"2021-03-04","launch_site_code":"AFETR","launch_vehicle":null,"mission":null,"orbit_class":"UNKNOWN","rcs_meters":null,"size_class":null,"mass_kg":null,"dimensions":null,"purposes":["comms"],"wikipedia_slug":null,"has_3d_model":false,"image_url":null,"decayed_at":null,"tle_current":{"epoch":"2026-05-25T04:36:34.601760Z","epoch_age_seconds":51610,"freshness":"FRESH","line1":"1 47733U 21017M   26145.19206715  .00001497  00000+0  60012-4 0  9997","line2":"2 47733  53.1565 220.8752 0002499  86.2190 273.9097 15.31704415289431","mean_motion":15.31704415,"eccentricity":0.0002499,"inclination_deg":53.1565,"raan_deg":220.8752,"arg_perigee_deg":86.219,"mean_anomaly_deg":273.9097,"bstar":6.0012e-5,"rev_number":28943,"period_min":94.012916976543,"perigee_km":469.01530329979,"apogee_km":472.43836544421,"semimajor_km":6848.863834372,"source":"CELESTRAK","updated_at":"2026-05-25T13:38:16.565283Z"}}}